Weather History for EHGR - March, 2013

Change the Weather History Date:

Sunday, March 31, 2013

  Actual Average Record
Temperature  
Mean Temperature 31 °F -  
Max Temperature 39 °F 56 °F - ()
Min Temperature 23 °F 39 °F - ()
Degree Days  
Heating Degree Days 34    
Moisture  
Dew Point 25 °F    
Average Humidity 73    
Maximum Humidity 93    
Minimum Humidity 49    
Precipitation  
Precipitation 0.00 in - - ()
Sea Level Pressure  
Sea Level Pressure 29.92 in    
Wind  
Wind Speed 7 mph ()    
Max Wind Speed 13 mph    
Max Gust Speed -    
Visibility 6.0 miles    
Events Snow    
T = Trace of Precipitation, MM = Missing Value Source: Averaged Metar Reports

Daily Weather History Graph

Daily Weather History Graph

Search for Another Location

Airport or City:

Trip Planner

Search our weather history database for the weather conditions in past years. The results will help you decide how hot, cold, wet, or windy it might be!

Date:

Astronomy

Mar. 31, 2013 Rise Set
Actual Time 7:17 AM CEST 8:12 PM CEST
Civil Twilight 6:43 AM CEST 8:46 PM CEST
Nautical Twilight 6:03 AM CEST 9:27 PM CEST
Astronomical Twilight 5:19 AM CEST 10:10 PM CEST
Moon 12:28 AM CET (3/31) 9:21 AM CEST (3/31)
Length of Visible Light 14h 02m
Length of Day
12h 54m
Waning Gibbous, 80% of the Moon is Illuminated
Mar 31
Waning Gibbous
Apr 3
Last Quarter
Apr 10
New
Apr 18
First Quarter
Apr 25
Full

Hourly Weather History & Observations

Time (CEST) Temp. Windchill Dew Point Humidity Pressure Visibility Wind Dir Wind Speed Gust Speed Precip Events Conditions
12:25 AM 30.2 °F 22.6 °F 26.6 °F 86% 29.89 in 6.2 mi North 8.1 mph - N/A   Unknown
12:55 AM 30.2 °F 21.9 °F 24.8 °F 80% 29.89 in 6.2 mi North 9.2 mph - N/A   Unknown
1:25 AM 30.2 °F 22.6 °F 24.8 °F 80% 29.89 in 6.2 mi NNE 8.1 mph - N/A   Unknown
1:55 AM 28.4 °F 20.4 °F 23.0 °F 80% 29.89 in 6.2 mi NNE 8.1 mph - N/A   Unknown
3:25 AM 26.6 °F 20.0 °F 23.0 °F 86% 29.89 in 6.2 mi North 5.8 mph - N/A   Unknown
3:55 AM 26.6 °F 21.2 °F 23.0 °F 86% 29.89 in 6.2 mi NNE 4.6 mph - N/A   Unknown
4:25 AM 24.8 °F 20.5 °F 21.2 °F 86% 29.89 in 6.2 mi NNE 3.5 mph - N/A   Unknown
4:55 AM 24.8 °F 20.5 °F 23.0 °F 93% 29.89 in 6.2 mi NNE 3.5 mph - N/A   Unknown
5:25 AM 24.8 °F 20.5 °F 21.2 °F 86% 29.89 in 6.2 mi North 3.5 mph - N/A   Unknown
5:55 AM 26.6 °F 20.0 °F 23.0 °F 86% 29.92 in 6.2 mi North 5.8 mph - N/A   Unknown
6:25 AM 26.6 °F 20.0 °F 23.0 °F 86% 29.92 in 6.2 mi North 5.8 mph - N/A   Unknown
6:55 AM 26.6 °F 22.6 °F 23.0 °F 86% 29.92 in 5.6 mi North 3.5 mph - N/A   Mist
7:17 AM 23.0 °F 18.4 °F 21.2 °F 93% 29.92 in 4.3 mi North 3.5 mph - N/A   Mist
7:25 AM 23.0 °F - 21.2 °F 93% 29.92 in 4.3 mi North 2.3 mph - N/A   Mist
7:55 AM 24.8 °F 20.5 °F 23.0 °F 93% 29.92 in 4.3 mi North 3.5 mph - N/A   Mist
8:09 AM 26.6 °F 20.0 °F 24.8 °F 93% 29.92 in 5.0 mi North 5.8 mph - N/A   Partly Cloudy
8:12 AM 26.6 °F 20.0 °F 24.8 °F 93% 29.92 in 4.3 mi North 5.8 mph - N/A   Partly Cloudy
8:16 AM 28.4 °F 22.2 °F 24.8 °F 86% 29.92 in 5.0 mi North 5.8 mph - N/A   Mist
8:25 AM 28.4 °F 21.2 °F 26.6 °F 93% 29.92 in 5.0 mi North 6.9 mph - N/A   Mist
8:36 AM 28.4 °F 22.2 °F 26.6 °F 93% 29.92 in 5.6 mi NNE 5.8 mph - N/A   Mist
8:55 AM 30.2 °F 24.3 °F 26.6 °F 86% 29.92 in 6.2 mi NNE 5.8 mph - N/A   Unknown
9:25 AM 32.0 °F 25.6 °F 28.4 °F 87% 29.95 in 6.2 mi NNE 6.9 mph - N/A   Unknown
9:55 AM 33.8 °F 26.4 °F 26.6 °F 75% 29.95 in 6.2 mi NNE 9.2 mph - N/A   Scattered Clouds
10:06 AM 33.8 °F 26.4 °F 28.4 °F 81% 29.95 in 6.2 mi NNE 9.2 mph - N/A   Mostly Cloudy
10:16 AM 33.8 °F 27.0 °F 28.4 °F 81% 29.95 in 6.2 mi NNE 8.1 mph - N/A   Mostly Cloudy
10:25 AM 35.6 °F 29.2 °F 28.4 °F 75% 29.95 in 6.2 mi NNE 8.1 mph - N/A   Mostly Cloudy
10:26 AM 35.6 °F 28.6 °F 28.4 °F 75% 29.95 in 6.2 mi NE 9.2 mph - N/A   Mostly Cloudy
10:55 AM 35.6 °F 28.6 °F 26.6 °F 70% 29.95 in 6.2 mi NE 9.2 mph - N/A   Mostly Cloudy
11:25 AM 35.6 °F 28.0 °F 26.6 °F 70% 29.95 in 6.2 mi NNE 10.4 mph - N/A   Overcast
11:29 AM 35.6 °F 28.0 °F 24.8 °F 65% 29.95 in 6.2 mi NE 10.4 mph - N/A   Mostly Cloudy
11:55 AM 35.6 °F 29.2 °F 24.8 °F 65% 29.95 in 6.2 mi NE 8.1 mph - N/A   Mostly Cloudy
11:59 AM 37.4 °F 31.4 °F 26.6 °F 65% 29.95 in 6.2 mi NE 8.1 mph - N/A   Mostly Cloudy
12:10 PM 39.2 °F 33.6 °F 26.6 °F 61% 29.95 in 6.2 mi ENE 8.1 mph - N/A   Mostly Cloudy
12:25 PM 37.4 °F 30.8 °F 24.8 °F 60% 29.95 in 6.2 mi NNE 9.2 mph - N/A   Overcast
12:55 PM 37.4 °F 30.3 °F 24.8 °F 60% 29.95 in 6.2 mi ENE 10.4 mph - N/A   Overcast
1:08 PM 37.4 °F 31.4 °F 26.6 °F 65% 29.95 in 6.2 mi NE 8.1 mph - N/A   Overcast
1:19 PM 37.4 °F 30.3 °F 24.8 °F 60% 29.95 in 6.2 mi NNE 10.4 mph - N/A   Mostly Cloudy
1:25 PM 35.6 °F 28.6 °F 24.8 °F 65% 29.95 in 6.2 mi NE 9.2 mph - N/A   Overcast
1:55 PM 39.2 °F 34.2 °F 23.0 °F 52% 29.95 in 6.2 mi East 6.9 mph - N/A   Overcast
2:25 PM 39.2 °F 33.6 °F 21.2 °F 49% 29.92 in 6.2 mi East 8.1 mph - N/A   Mostly Cloudy
2:55 PM 39.2 °F 33.6 °F 23.0 °F 52% 29.92 in 6.2 mi NNE 8.1 mph - N/A   Overcast
3:25 PM 37.4 °F 29.3 °F 26.6 °F 65% 29.92 in 6.2 mi NNE 12.7 mph - N/A Snow Light Snow
3:55 PM 37.4 °F 29.8 °F 26.6 °F 65% 29.92 in 6.2 mi NNE 11.5 mph - N/A   Mostly Cloudy
4:14 PM 37.4 °F 30.8 °F 24.8 °F 60% 29.92 in 6.2 mi NE 9.2 mph - N/A   Mostly Cloudy
4:25 PM 37.4 °F 30.3 °F 26.6 °F 65% 29.92 in 6.2 mi NE 10.4 mph - N/A   Mostly Cloudy
4:36 PM 35.6 °F 27.5 °F 28.4 °F 75% 29.92 in 6.2 mi ENE 11.5 mph - N/A   Mostly Cloudy
4:55 PM 35.6 °F 29.9 °F 26.6 °F 70% 29.92 in 6.2 mi NE 6.9 mph - N/A   Overcast
5:25 PM 37.4 °F 32.8 °F 26.6 °F 65% 29.92 in 6.2 mi NE 5.8 mph - N/A   Overcast
5:55 PM 37.4 °F 32.1 °F 24.8 °F 60% 29.92 in 6.2 mi NE 6.9 mph - N/A   Mostly Cloudy
6:25 PM 37.4 °F 31.4 °F 23.0 °F 56% 29.92 in 6.2 mi ENE 8.1 mph - N/A   Overcast
6:55 PM 37.4 °F 31.4 °F 24.8 °F 60% 29.92 in 6.2 mi ENE 8.1 mph - N/A   Overcast
7:25 PM 37.4 °F 32.1 °F 24.8 °F 60% 29.92 in 6.2 mi East 6.9 mph - N/A   Overcast
7:55 PM 35.6 °F 29.2 °F 23.0 °F 60% 29.92 in 6.2 mi ENE 8.1 mph - N/A   Overcast
8:25 PM 35.6 °F 29.9 °F 23.0 °F 60% 29.92 in 6.2 mi ENE 6.9 mph - N/A   Overcast
8:55 PM 35.6 °F 30.7 °F 24.8 °F 65% 29.92 in 6.2 mi ENE 5.8 mph - N/A   Overcast
9:25 PM 35.6 °F 29.9 °F 24.8 °F 65% 29.92 in 6.2 mi ENE 6.9 mph - N/A   Overcast
9:55 PM 35.6 °F 29.2 °F 24.8 °F 65% 29.92 in 6.2 mi ENE 8.1 mph - N/A   Overcast
10:14 PM 35.6 °F 29.9 °F 24.8 °F 65% 29.92 in 3.7 mi ENE 6.9 mph - N/A   Haze
10:25 PM 35.6 °F 29.9 °F 24.8 °F 65% 29.92 in 6.2 mi ENE 6.9 mph - N/A   Overcast
10:55 PM 33.8 °F 27.7 °F 24.8 °F 70% 29.92 in 6.2 mi ENE 6.9 mph - N/A   Overcast
11:25 PM 33.8 °F 29.6 °F 24.8 °F 70% 29.92 in 6.2 mi NE 4.6 mph - N/A   Overcast
11:55 PM 33.8 °F 27.7 °F 26.6 °F 75% 29.92 in 6.2 mi NE 6.9 mph - N/A   Overcast
12:25 AM 33.8 °F 27.7 °F 26.6 °F 75% 29.92 in 6.2 mi NE 6.9 mph - N/A   Overcast
12:55 AM 33.8 °F 27.7 °F 26.6 °F 75% 29.92 in 6.2 mi NE 6.9 mph - N/A   Overcast